Location: San Martino di Castrozza
(46.2667°N, 11.8000°E)
Time: 06:31:37
(UTC+00:00)

Meteor 2-9 Rocket - Pass Details

Date: 23 April 2021
Orbit: 792 x 894 km, 81.3° (Epoch: 07 May)

Event Time Altitude Azimuth Distance (km) Brightness Sun altitude
Rises 01:06:06 0° 344° (NNW) 3,515 8.0 -25.8°
Reaches altitude 10° 01:08:37 10° 340° (NNW) 2,575 7.2 -25.5°
Maximum altitude 01:14:18 52° 266° (W) 1,101 4.5 -25.0°
Enters shadow 01:14:25 52° 262° (W) 1,102 4.5 -25.0°
